| time (UTC) | temp F | wind direction | speed MPH | gust MPH | rain 1hr in | rain 24hr in | rain mn in | humidity % | barometer mb |
| 20260904154802 | 86 | 202 | 7.0 | 13.0 | 0.00 | 0.00 | 0.00 | 55 | 1013.7 |
| 20260904153331 | 85 | 199 | 7.0 | 16.0 | 0.00 | 0.00 | 0.00 | 57 | 1013.5 |
| 20260904151803 | 84 | 204 | 7.0 | 12.0 | 0.00 | 0.00 | 0.00 | 59 | 1013.5 |
| 20260904150316 | 83 | 209 | 9.0 | 16.0 | 0.00 | 0.00 | 0.00 | 59 | 1013.6 |
| 20260904144804 | 82 | 205 | 7.0 | 17.0 | 0.00 | 0.00 | 0.00 | 60 | 1013.5 |
| 20260904143338 | 81 | 200 | 6.0 | 16.0 | 0.00 | 0.00 | 0.00 | 61 | 1013.7 |
| 20260904141805 | 80 | 192 | 6.0 | 15.0 | 0.00 | 0.00 | 0.00 | 62 | 1013.7 |
| 20260904140317 | 79 | 178 | 7.0 | 14.0 | 0.00 | 0.00 | 0.00 | 63 | 1013.5 |
| 20260904134809 | 78 | 205 | 8.0 | 14.0 | 0.00 | 0.00 | 0.00 | 63 | 1013.5 |
| 20260904133303 | 78 | 192 | 6.0 | 17.0 | 0.00 | 0.00 | 0.00 | 65 | 1013.3 |
| 20260904131813 | 76 | 173 | 5.0 | 13.0 | 0.00 | 0.00 | 0.00 | 67 | 1013.0 |
| 20260904130306 | 76 | 189 | 7.0 | 12.0 | 0.00 | 0.00 | 0.00 | 67 | 1013.0 |
| 20260904124815 | 76 | 188 | 6.0 | 14.0 | 0.00 | 0.00 | 0.00 | 68 | 1012.7 |
| 20260904123307 | 76 | 173 | 6.0 | 16.0 | 0.00 | 0.00 | 0.00 | 67 | 1012.3 |
| 20260904121802 | 76 | 188 | 5.0 | 11.0 | 0.00 | 0.00 | 0.00 | 68 | 1012.0 |
| 20260904120310 | 76 | 188 | 6.0 | 14.0 | 0.00 | 0.00 | 0.00 | 68 | 1012.0 |
| 20260904114805 | 76 | 190 | 7.0 | 12.0 | 0.00 | 0.00 | 0.00 | 67 | 1012.0 |
| 20260904113319 | 76 | 175 | 6.0 | 14.0 | 0.00 | 0.00 | 0.00 | 67 | 1011.8 |
| 20260904111813 | 77 | 204 | 6.0 | 12.0 | 0.00 | 0.00 | 0.00 | 67 | 1011.7 |
| 20260904110317 | 77 | 182 | 5.0 | 11.0 | 0.00 | 0.00 | 0.00 | 67 | 1011.7 |
| 20260904104807 | 77 | 207 | 5.0 | 13.0 | 0.00 | 0.00 | 0.00 | 67 | 1011.7 |
| 20260904103313 | 77 | 194 | 5.0 | 11.0 | 0.00 | 0.00 | 0.00 | 66 | 1011.7 |
| 20260904101824 | 77 | 195 | 5.0 | 13.0 | 0.00 | 0.00 | 0.00 | 66 | 1011.6 |
| 20260904100317 | 78 | 197 | 5.0 | 8.0 | 0.00 | 0.00 | 0.00 | 66 | 1011.7 |
| 20260904094811 | 78 | 208 | 5.0 | 11.0 | 0.00 | 0.00 | 0.00 | 65 | 1011.5 |
| 20260904093318 | 78 | 167 | 6.0 | 11.0 | 0.00 | 0.00 | 0.00 | 65 | 1011.3 |
| 20260904091831 | 78 | 191 | 5.0 | 11.0 | 0.00 | 0.00 | 0.00 | 64 | 1011.2 |
| 20260904090300 | 79 | 184 | 6.0 | 13.0 | 0.00 | 0.00 | 0.00 | 63 | 1011.2 |
| 20260904084813 | 79 | 195 | 7.0 | 13.0 | 0.00 | 0.00 | 0.00 | 63 | 1011.2 |
| 20260904083305 | 79 | 193 | 6.0 | 13.0 | 0.00 | 0.00 | 0.00 | 62 | 1011.4 |
| 20260904081805 | 80 | 176 | 6.0 | 13.0 | 0.00 | 0.00 | 0.00 | 62 | 1011.3 |
| 20260904080333 | 80 | 180 | 7.0 | 13.0 | 0.00 | 0.00 | 0.00 | 61 | 1011.2 |
| 20260904074808 | 81 | 188 | 7.0 | 13.0 | 0.00 | 0.00 | 0.00 | 60 | 1011.3 |
| 20260904073322 | 81 | 206 | 6.0 | 15.0 | 0.00 | 0.00 | 0.00 | 60 | 1011.3 |
| 20260904071817 | 81 | 190 | 6.0 | 16.0 | 0.00 | 0.00 | 0.00 | 59 | 1011.6 |
| 20260904070311 | 82 | 198 | 7.0 | 16.0 | 0.00 | 0.00 | 0.00 | 58 | 1011.5 |
| 20260904064807 | 82 | 171 | 6.0 | 14.0 | 0.00 | 0.00 | 0.00 | 57 | 1011.4 |
| 20260904063320 | 83 | 169 | 6.0 | 15.0 | 0.00 | 0.00 | 0.00 | 56 | 1011.6 |
| 20260904061811 | 83 | 167 | 6.0 | 15.0 | 0.00 | 0.00 | 0.00 | 55 | 1011.4 |
| 20260904060302 | 84 | 175 | 7.0 | 13.0 | 0.00 | 0.00 | 0.00 | 54 | 1011.3 |
| 20260904054814 | 84 | 194 | 8.0 | 15.0 | 0.00 | 0.00 | 0.00 | 53 | 1011.3 |
| 20260904053310 | 85 | 181 | 5.0 | 13.0 | 0.00 | 0.00 | 0.00 | 52 | 1011.3 |
| 20260904051805 | 85 | 196 | 6.0 | 11.0 | 0.00 | 0.00 | 0.00 | 52 | 1011.3 |
| 20260904050317 | 85 | 182 | 5.0 | 8.0 | 0.00 | 0.00 | 0.00 | 51 | 1011.3 |
| 20260904044828 | 85 | 187 | 4.0 | 11.0 | 0.00 | 0.00 | 0.00 | 50 | 1011.3 |
| 20260904043314 | 86 | 205 | 4.0 | 10.0 | 0.00 | 0.00 | 0.00 | 49 | 1011.3 |
| 20260904041808 | 87 | 200 | 4.0 | 9.0 | 0.00 | 0.00 | 0.00 | 47 | 1011.3 |
| 20260904040319 | 87 | 170 | 6.0 | 11.0 | 0.00 | 0.00 | 0.00 | 46 | 1011.2 |
| 20260904034811 | 88 | 187 | 4.0 | 9.0 | 0.00 | 0.00 | 0.00 | 46 | 1011.3 |
| 20260904033302 | 88 | 171 | 4.0 | 10.0 | 0.00 | 0.00 | 0.00 | 45 | 1011.1 |
| 20260904031817 | 88 | 187 | 3.0 | 8.0 | 0.00 | 0.00 | 0.00 | 44 | 1011.0 |
| 20260904030310 | 89 | 172 | 5.0 | 10.0 | 0.00 | 0.00 | 0.00 | 43 | 1010.8 |
| 20260904024804 | 90 | 198 | 5.0 | 9.0 | 0.00 | 0.00 | 0.00 | 42 | 1010.6 |
| 20260904023316 | 90 | 187 | 4.0 | 8.0 | 0.00 | 0.00 | 0.00 | 40 | 1010.4 |
| 20260904021818 | 91 | 182 | 3.0 | 12.0 | 0.00 | 0.00 | 0.00 | 39 | 1010.1 |
| 20260904020312 | 91 | 190 | 1.0 | 10.0 | 0.00 | 0.00 | 0.00 | 38 | 1010.0 |
| 20260904014802 | 92 | 198 | 4.0 | 9.0 | 0.00 | 0.00 | 0.00 | 36 | 1009.9 |
| 20260904013335 | 93 | 219 | 4.0 | 10.0 | 0.00 | 0.00 | 0.00 | 35 | 1009.6 |
| 20260904011810 | 94 | 171 | 2.0 | 7.0 | 0.00 | 0.00 | 0.00 | 33 | 1009.5 |
| 20260904010304 | 94 | 194 | 3.0 | 8.0 | 0.00 | 0.00 | 0.00 | 32 | 1009.4 |
| 20260904004815 | 96 | 213 | 3.0 | 10.0 | 0.00 | 0.00 | 0.00 | 30 | 1009.3 |
| 20260904003307 | 97 | 196 | 2.0 | 9.0 | 0.00 | 0.00 | 0.00 | 27 | 1009.2 |
| 20260904001803 | 99 | 184 | 1.0 | 13.0 | 0.00 | 0.00 | 0.00 | 25 | 1009.1 |
| 20260904000319 | 100 | 217 | 1.0 | 5.0 | 0.00 | 0.00 | 0.00 | 24 | 1009.0 |
| 20260903234812 | 100 | 189 | 2.0 | 8.0 | 0.00 | 0.00 | 0.00 | 24 | 1008.9 |
| 20260903233326 | 101 | 355 | 4.0 | 12.0 | 0.00 | 0.00 | 0.00 | 23 | 1008.8 |
| 20260903231836 | 102 | 87 | 4.0 | 11.0 | 0.00 | 0.00 | 0.00 | 22 | 1008.7 |
| 20260903230306 | 102 | 63 | 3.0 | 14.0 | 0.00 | 0.00 | 0.00 | 22 | 1008.7 |
| 20260903224819 | 103 | 194 | 3.0 | 8.0 | 0.00 | 0.00 | 0.00 | 21 | 1008.6 |
| 20260903223309 | 103 | 202 | 2.0 | 8.0 | 0.00 | 0.00 | 0.00 | 22 | 1008.6 |
| 20260903221823 | 104 | 188 | 2.0 | 7.0 | 0.00 | 0.00 | 0.00 | 20 | 1008.7 |
| 20260903220316 | 104 | 76 | 2.0 | 11.0 | 0.00 | 0.00 | 0.00 | 21 | 1008.7 |
| 20260903214828 | 103 | 108 | 1.0 | 6.0 | 0.00 | 0.00 | 0.00 | 21 | 1008.8 |
| 20260903213301 | 101 | 86 | 1.0 | 5.0 | 0.00 | 0.00 | 0.00 | 22 | 1009.0 |
| 20260903211814 | 101 | 161 | 1.0 | 8.0 | 0.00 | 0.00 | 0.00 | 22 | 1009.3 |
| 20260903210303 | 102 | 211 | 2.0 | 5.0 | 0.00 | 0.00 | 0.00 | 22 | 1009.4 |
| 20260903204816 | 101 | 40 | 5.0 | 9.0 | 0.00 | 0.00 | 0.00 | 21 | 1009.5 |
| 20260903203327 | 103 | 84 | 6.0 | 10.0 | 0.00 | 0.00 | 0.00 | 20 | 1009.8 |
| 20260903201816 | 105 | 188 | 2.0 | 8.0 | 0.00 | 0.00 | 0.00 | 19 | 1010.0 |
| 20260903200310 | 105 | 151 | 4.0 | 12.0 | 0.00 | 0.00 | 0.00 | 19 | 1010.2 |
| 20260903194805 | 105 | 73 | 8.0 | 12.0 | 0.00 | 0.00 | 0.00 | 19 | 1010.4 |
| 20260903193314 | 104 | 76 | 1.0 | 5.0 | 0.00 | 0.00 | 0.00 | 21 | 1010.6 |
| 20260903191811 | 103 | 181 | 2.0 | 7.0 | 0.00 | 0.00 | 0.00 | 21 | 1011.0 |
| 20260903190302 | 102 | 211 | 4.0 | 10.0 | 0.00 | 0.00 | 0.00 | 22 | 1011.2 |
| 20260903184816 | 102 | 218 | 4.0 | 8.0 | 0.00 | 0.00 | 0.00 | 23 | 1011.3 |
| 20260903183304 | 101 | 222 | 3.0 | 8.0 | 0.00 | 0.00 | 0.00 | 23 | 1011.6 |
| 20260903181838 | 99 | 303 | 2.0 | 9.0 | 0.00 | 0.00 | 0.00 | 24 | 1011.9 |
| 20260903180309 | 99 | 350 | 2.0 | 9.0 | 0.00 | 0.00 | 0.00 | 24 | 1012.1 |
| 20260903174802 | 100 | 236 | 3.0 | 8.0 | 0.00 | 0.00 | 0.00 | 24 | 1012.3 |
| 20260903173315 | 99 | 146 | 2.0 | 8.0 | 0.00 | 0.00 | 0.00 | 26 | 1012.4 |
| 20260903171806 | 99 | 196 | 4.0 | 9.0 | 0.00 | 0.00 | 0.00 | 29 | 1012.6 |
| 20260903170315 | 97 | 227 | 4.0 | 8.0 | 0.00 | 0.00 | 0.00 | 31 | 1012.7 |
| 20260903164806 | 97 | 211 | 5.0 | 11.0 | 0.00 | 0.00 | 0.00 | 32 | 1012.7 |
| 20260903163316 | 96 | 216 | 6.0 | 11.0 | 0.00 | 0.00 | 0.00 | 34 | 1012.7 |
| 20260903161806 | 94 | 224 | 5.0 | 10.0 | 0.00 | 0.00 | 0.00 | 37 | 1012.7 |
| 20260903160337 | 93 | 215 | 7.0 | 13.0 | 0.00 | 0.00 | 0.00 | 37 | 1012.7 |